Terug naar catalogus

M2 PATHFINDER

ActiefWetenschapSSO
NORAD 45727·PAYLOAD·🇦🇺 Australia

Gelanceerd Jun 13, 2020 vanaf Rocket Lab Launch Complex 1

Loading…

Volgende Passages (komende 24 uur)

TLE

VersSource: Space-Track

Epoch: Sep 14, 2026, 11:31 UTC

1 45727U 20037E   26257.48023860  .00002327  00000-0  16832-3 0  9997
2 45727  97.8135  89.7421 0010775 205.6117 154.4576 15.05016753338923

Volg M2 PATHFINDER in realtime met AllMySat

Download on the App Store